Ever Develop — 3FLF8 — position and weather

sailwx.info

Track history (hours):
 
Tides and Currents Weather Stations Pressure Air Temp Water Temp Dewpoint Dewpoint Depression Visibility Wind Speed Wind Dir Waves Ship Positions

Ever Develop

Last reported at 2014-Sep-30 09:33 UTC. Time now 2014-Sep-30 10:12 UTC.
Position N 22°31' E 119°40'.

Type: Ship (hazmat cat D). MMSI: 356391000.

Date/timePositionNaut miles runAvg speedWind from/ knotsBaromVisibWave heightAir tempDewpointWater temp
2014-Sep-30 09:33N 22°31' E 119°40'1818.3
2014-Sep-30 08:33N 22°32' E 120°00'1716.2
2014-Sep-30 07:32N 22°33' E 120°18'2 0.6
2014-Sep-30 04:30N 22°33' E 120°20'0 0.0
2014-Sep-30 03:30N 22°33' E 120°20'0 0.0
2014-Sep-30 02:30N 22°33' E 120°20'0 0.0
2014-Sep-30 00:12N 22°33' E 120°20'0 0.0
2014-Sep-29 23:30N 22°33' E 120°20'0 0.0
2014-Sep-29 22:30N 22°33' E 120°20'0 0.0
2014-Sep-29 21:33N 22°33' E 120°20'0 0.0
2014-Sep-29 20:33N 22°33' E 120°20'0 0.0
2014-Sep-29 19:33N 22°33' E 120°20'0 0.0
2014-Sep-29 18:33N 22°33' E 120°20'0 0.0
2014-Sep-29 17:33N 22°33' E 120°20'0 0.0
2014-Sep-29 16:33N 22°33' E 120°20'3 2.6
2014-Sep-29 15:33N 22°33' E 120°17'2 2.5
2014-Sep-29 14:33N 22°32' E 120°15'0 0.2
2014-Sep-29 13:32N 22°31' E 120°15'0 0.0
2014-Sep-29 12:26N 22°31' E 120°15'0 0.0
2014-Sep-29 11:32N 22°31' E 120°15'0 0.1
2014-Sep-29 10:32N 22°31' E 120°15'0 0.1
2014-Sep-29 09:32N 22°31' E 120°15'0 0.1
2014-Sep-29 08:26N 22°31' E 120°15'0 0.0
2014-Sep-29 07:32N 22°31' E 120°15'0 0.0
2014-Sep-29 06:32N 22°31' E 120°15'0 0.0
2014-Sep-29 05:32N 22°31' E 120°15'0 0.0
2014-Sep-29 01:08N 22°31' E 120°15'0 0.0
2014-Sep-29 00:20N 22°31' E 120°15'0 0.0
2014-Sep-28 23:26N 22°31' E 120°15'0 0.0
2014-Sep-28 22:32N 22°31' E 120°15'0 0.1
2014-Sep-28 21:32N 22°31' E 120°15'0 0.1
2014-Sep-28 20:32N 22°32' E 120°15'0 0.1
2014-Sep-28 19:32N 22°32' E 120°15'0 0.0
2014-Sep-28 18:14N 22°32' E 120°15'0 0.0
2014-Sep-28 17:32N 22°32' E 120°15'0 0.0
2014-Sep-28 16:32N 22°32' E 120°15'0 0.1
2014-Sep-28 15:32N 22°31' E 120°15'0 0.2
2014-Sep-28 14:32N 22°31' E 120°15'0 0.0
2014-Sep-28 13:32N 22°31' E 120°15'0 0.0
2014-Sep-28 12:32N 22°31' E 120°15'0 0.1
2014-Sep-28 11:32N 22°31' E 120°15'0 0.0
2014-Sep-28 10:32N 22°31' E 120°15'0 0.0
2014-Sep-28 09:32N 22°31' E 120°15'0 0.0
2014-Sep-28 08:32N 22°31' E 120°15'0 0.1
2014-Sep-28 07:32N 22°31' E 120°15'0 0.1
2014-Sep-28 06:33N 22°31' E 120°15'9 8.7
2014-Sep-28 05:33N 22°23' E 120°13'1413.3
2014-Sep-28 04:32N 22°10' E 120°19'  
Track history (hours):
 
Tides and Currents Weather Stations Pressure Air Temp Water Temp Dewpoint Dewpoint Depression Visibility Wind Speed Wind Dir Waves Ship Positions

Ever Develop

Last reported at 2014-Sep-30 09:33 UTC. Time now 2014-Sep-30 10:12 UTC.
Position N 22°31' E 119°40'.

Type: Ship (hazmat cat D). MMSI: 356391000.

Date/timePositionNaut miles runAvg speedWind from/ knotsBaromVisibWave heightAir tempDewpointWater temp
2014-Sep-30 09:33N 22°31' E 119°40'1818.3
2014-Sep-30 08:33N 22°32' E 120°00'1716.2
2014-Sep-30 07:32N 22°33' E 120°18'2 0.6
2014-Sep-30 04:30N 22°33' E 120°20'0 0.0
2014-Sep-30 03:30N 22°33' E 120°20'0 0.0
2014-Sep-30 02:30N 22°33' E 120°20'0 0.0
2014-Sep-30 00:12N 22°33' E 120°20'0 0.0
2014-Sep-29 23:30N 22°33' E 120°20'0 0.0
2014-Sep-29 22:30N 22°33' E 120°20'0 0.0
2014-Sep-29 21:33N 22°33' E 120°20'0 0.0
2014-Sep-29 20:33N 22°33' E 120°20'0 0.0
2014-Sep-29 19:33N 22°33' E 120°20'0 0.0
2014-Sep-29 18:33N 22°33' E 120°20'0 0.0
2014-Sep-29 17:33N 22°33' E 120°20'0 0.0
2014-Sep-29 16:33N 22°33' E 120°20'3 2.6
2014-Sep-29 15:33N 22°33' E 120°17'2 2.5
2014-Sep-29 14:33N 22°32' E 120°15'0 0.2
2014-Sep-29 13:32N 22°31' E 120°15'0 0.0
2014-Sep-29 12:26N 22°31' E 120°15'0 0.0
2014-Sep-29 11:32N 22°31' E 120°15'0 0.1
2014-Sep-29 10:32N 22°31' E 120°15'0 0.1
2014-Sep-29 09:32N 22°31' E 120°15'0 0.1
2014-Sep-29 08:26N 22°31' E 120°15'0 0.0
2014-Sep-29 07:32N 22°31' E 120°15'0 0.0
2014-Sep-29 06:32N 22°31' E 120°15'0 0.0
2014-Sep-29 05:32N 22°31' E 120°15'0 0.0
2014-Sep-29 01:08N 22°31' E 120°15'0 0.0
2014-Sep-29 00:20N 22°31' E 120°15'0 0.0
2014-Sep-28 23:26N 22°31' E 120°15'0 0.0
2014-Sep-28 22:32N 22°31' E 120°15'0 0.1
2014-Sep-28 21:32N 22°31' E 120°15'0 0.1
2014-Sep-28 20:32N 22°32' E 120°15'0 0.1
2014-Sep-28 19:32N 22°32' E 120°15'0 0.0
2014-Sep-28 18:14N 22°32' E 120°15'0 0.0
2014-Sep-28 17:32N 22°32' E 120°15'0 0.0
2014-Sep-28 16:32N 22°32' E 120°15'0 0.1
2014-Sep-28 15:32N 22°31' E 120°15'0 0.2
2014-Sep-28 14:32N 22°31' E 120°15'0 0.0
2014-Sep-28 13:32N 22°31' E 120°15'0 0.0
2014-Sep-28 12:32N 22°31' E 120°15'0 0.1
2014-Sep-28 11:32N 22°31' E 120°15'0 0.0
2014-Sep-28 10:32N 22°31' E 120°15'0 0.0
2014-Sep-28 09:32N 22°31' E 120°15'0 0.0
2014-Sep-28 08:32N 22°31' E 120°15'0 0.1
2014-Sep-28 07:32N 22°31' E 120°15'0 0.1
2014-Sep-28 06:33N 22°31' E 120°15'9 8.7
2014-Sep-28 05:33N 22°23' E 120°13'1413.3
2014-Sep-28 04:32N 22°10' E 120°19'  

Dump ship's entire track history